Skip Page Navigation
NASA JPL Caltech
NASA Logo - Jet Propulsion Laboratory + View the NASA Portal
+ Near-Earth Object (NEO) Program
Search JPL
JPL Home Earth Solar System Stars & Galaxies Technology
JPL Solar System Dynamics
BODIES ORBITS EPHEMERIDES TOOLS PHYSICAL DATA DISCOVERY FAQ SITE MAP
JPL Small-Body Database Browser
Search: [ help ]  
5784 Yoron (1991 CY)
Classification: Main-belt Asteroid          SPK-ID: 2005784
Ephemeris | Orbit Diagram | Orbital Elements | Physical Parameters | Discovery Circumstances ]

[ show orbit diagram ]
Orbital Elements at Epoch 2456400.5 (2013-Apr-18.0) TDB
Reference: MPO256906 (heliocentric ecliptic J2000)
 Element Value Uncertainty (1-sigma)   Units 
e 0.1218190 n/a  
a 2.6413594 n/a AU
q 2.3195916 n/a AU
i 9.42812 n/a deg
node 290.02719 n/a deg
peri 229.59287 n/a deg
M 53.17367 n/a deg
tp 2456168.9025390
(2012-Aug-29.40253900)
n/a JED
period 1567.9768943
4.29
n/a
n/a
d
yr
n 0.22959522 n/a deg/d
Q 2.9631272 n/a AU
  Orbit Determination Parameters
   # obs. used (total)      758  
   first obs. used      1978-??-??  
   last obs. used      2013-03-15  
   # oppositions      16  
   planetary ephem.      DE403  
   condition code      0  
   fit RMS      0.54  
   data source      MPC:mpn  
   producer      MPCLINUX  

Additional Information
 T_jup = 3.365 

Ephemeris | Orbit Diagram | Orbital Elements | Physical Parameters | Discovery Circumstances ]

Physical Parameter Table
Parameter Symbol Value Units Sigma Reference Notes
absolute magnitude H 12.7 mag n/a PDS3 (MPC 28114)  

5784 Yoron           Discovered 1991 Feb. 9 by A. Natori and T. Urata at Yakiimo.
Yoron island is located in the north of Okinawa prefecture. The name was suggested by Y. Ueno, who lives on this island (latitude +27\rm o ) and succeeded in observing \alpha Crucis (declination -63\rm o ) from there in Mar. 2008 using the atmospheric refraction.
NOTE: some special characters may not display properly (any characters within {} are an attempt to place the proper accent above a character)
Reference: 20090607/MPCPages.arcLast Updated: 2009-06-08

Alternate Designations
 1991 CY = 1978 EK4 = 1980 RM5 
Ephemeris | Orbit Diagram | Orbital Elements | Physical Parameters | Discovery Circumstances ]
ABOUT SSD CREDITS/AWARDS PRIVACY/COPYRIGHT GLOSSARY LINKS
FirstGov 2013-May-20 01:20 UT
(server date/time)  
NASA Home Page
Site Manager:   Donald K. Yeomans
Webmaster  Alan B. Chamberlin